Regional Weather Roundup
Issued by NWS

Home | Current Version | Previous Version | Text Only | Print | Product List | Glossary Off
Versions: 1 2 3 4 5 6 7 8 9 10 11 12 13 14 15 16 17 18 19 20 21 22 23 24 25 26 27 28 29 30 31 32 33 34 35 36 37 38 39 40 41 42 43 44 45 46 47 48 49 50

000
ASUS45 KBOU 191907
RWRCO

WEATHER ROUNDUP FOR COLORADO
NATIONAL WEATHER SERVICE DENVER/BOULDER CO
100 PM MDT TUE AUG 19 2014

NOTE: "FAIR" INDICATES FEW OR NO CLOUDS BELOW 12000 FEET WITH NO
SIGNIFICANT WEATHER AND/OR OBSTRUCTIONS TO VISIBILITY.

COZ001>005-013-030-031-192000-
...NORTHWEST COLORADO...

CITY           SKY/WX    TMP DP  RH WIND       PRES   REMARKS
CRAIG          HVY RAIN  58  53  84 W14G24    30.18R
HAYDEN         CLOUDY    61  46  59 W20G28    30.18R
MEEKER         LGT RAIN  58  53  84 SE8       30.15S
MOUNT WERNER   NOT AVBL
STEAMBOAT SPGS CLOUDY    66  49  55 SW6       30.16R
WALDEN         PTSUNNY   68  36  30 CALM      30.20F
$$

COZ006>008-011-192000-
...WEST CENTRAL VALLEYS...

CITY           SKY/WX    TMP DP  RH WIND       PRES   REMARKS
GRAND JUNCTION CLOUDY    72  57  59 W8        30.01F
MONTROSE       PTSUNNY   79  46  31 NW13      30.05F
EAGLE          PTSUNNY   73  43  33 SW5       30.11F
RIFLE          CLOUDY    74  46  36 W10       30.05F
DELTA          PTSUNNY   85  46  25 SW9G17    30.01F
NUCLA          PTSUNNY   77  45  31 NW6       30.09F
$$

COZ017>023-064>068-192000-
...SOUTHWEST COLORADO...

CITY           SKY/WX    TMP DP  RH WIND       PRES   REMARKS
DURANGO        PTSUNNY   79  42  26 VRB3      30.11F
CORTEZ         MOSUNNY   78  47  33 MISG      30.07F
PAGOSA SPRINGS PTSUNNY   77  35  21 SW10G17   30.19F
TELLURIDE      PTSUNNY   66  39  37 S20       30.27S
WOLF CREEK PAS NOT AVBL
$$

COZ009-010-012-014-032>034-037-058>063-192000-
...CENTRAL COLORADO...

CITY           SKY/WX    TMP DP  RH WIND       PRES   REMARKS
ASPEN          PTSUNNY   74  40  29 VRB6      30.15F
BUENA VISTA    NOT AVBL
COPPER MTN     CLOUDY    59  34  38 S9G24     30.51F
BERTHOUD PASS  LGT RAIN  48  46  93 NW15      30.54F
COTTONWOOD PAS PTSUNNY   70  32  24 CALM      30.33S
GUNNISON       PTSUNNY   73  41  31 SE6       30.19F
KREMMLING      CLOUDY    72  32  23 SW7G22    30.16F
LEADVILLE      CLOUDY    62  35  36 N7        30.32F
MONARCH PASS   PTSUNNY   54  36  50 W20       30.59F
SALIDA         PTSUNNY   78  41  26 S5        30.19F
SUNLIGHT       CLOUDY    61  43  51 CALM      30.41F
WILKERSON PASS NOT AVBL
$$

COZ069>075-192000-
...SAN LUIS VALLEY/SANGRE DE CRISTO MOUNTAINS...

CITY           SKY/WX    TMP DP  RH WIND       PRES   REMARKS
ALAMOSA        MOSUNNY   80  42  25 S10       30.16F
LA VETA PASS   MOSUNNY   70  37  30 S9G18     30.36F
SAGUACHE       PTSUNNY   72  41  33 S5        30.19F
$$

COZ035-036-038>040-192000-
...NORTHERN COLORADO FRONT RANGE...

CITY           SKY/WX    TMP DP  RH WIND       PRES   REMARKS
DENVER INTL AP PTSUNNY   88  43  20 N7        29.94F
DMNS CITY PARK   N/A     91  41  17 NE7       29.92F
AURORA         PTSUNNY   87  40  19 VRB5      29.97F
FRONT RANGE AP NOT AVBL
ERIE MUNI ARPT MOSUNNY   88  44  21 SE5       29.92F
BOULDER MUN AP MOSUNNY   84  46  26 E5        29.94F
CENTENNIAL     PTSUNNY   86  36  16 VRB3      29.98F
BROOMFIELD     PTSUNNY   86  41  20 CALM      29.97F
FORT COLLINS   MOSUNNY   82  55  39 S9        29.92F
LONGMONT       MOSUNNY   86  53  32 CALM      29.94F
$$

COZ041-046-047-076>085-087-088-192000-
...PIKES PEAK/PALMER DIVIDE AND SOUTHERN FOOTHILLS...

CITY           SKY/WX    TMP DP  RH WIND       PRES   REMARKS
COLO. SPRINGS  MOSUNNY   83  48  29 SE6       30.02F
A. F. ACADEMY  MOSUNNY   80  48  33 S15       30.03F
ELLICOTT       SUNNY     84  43  23 S9        30.01F
FALCON         SUNNY     81  41  24 CALM      30.08F
FORT CARSON    SUNNY     84  45  24 VRB5      29.99F
LIMON          SUNNY     90  38  16 E9        29.95F
MONUMENT HILL  MOSUNNY   79  41  25 CALM      30.07F
TRINIDAD       SUNNY     87  43  21 E6        29.99F
$$

COZ042>045-048>051-090-091-192000-
...NORTHEAST COLORADO...

CITY           SKY/WX    TMP DP  RH WIND       PRES   REMARKS
GREELEY ARPT   MOSUNNY   82  54  36 S6        29.92F
AKRON          SUNNY     87  48  25 S12       29.91F
BURLINGTON     MOSUNNY   88  53  30 SE8       29.89F
WRAY             N/A     89  50  26 E7        29.86F
STERLING       SUNNY     88  63  42 CALM      29.86F
HOLYOKE        NOT AVBL
FORT MORGAN    SUNNY     84  51  32 E5        29.91F
$$

COZ086-089-092>099-192000-
...SOUTHEAST COLORADO...

CITY           SKY/WX    TMP DP  RH WIND       PRES   REMARKS
PUEBLO         SUNNY     91  44  19 SW6       29.89F
LA JUNTA       SUNNY     93  48  21 S6G16     29.88F
LAMAR          MOSUNNY   94  47  20 VRB6      29.84F
SPRINGFIELD      N/A     94  50  22 S18G25    29.91F
$$


USA.gov is the U.S. government's official web portal to all federal, state and local government web resources and services.